N62RP WAMM-WAFW

Flight info

Callsign N62RP
Flight time 1h 24m
Altitude 8000
Route MWB DCT LWK
Aircraft DA62/L-SDFGRY/C

Departure

Time 2026-04-14 07:34
Airport Sam Ratulangi International Airport (WAMM)

Arrival

Time 2026-04-14 08:59
Airport Syukuran Aminuddin Amir Airport (WAFW)
Time Latitude Longitude Altitude Speed Heading
2026-04-14 07:23 1.53831 124.92371 303 ft 0 kts
2026-04-14 07:25 1.53846 124.92384 303 ft 4 kts 86°
2026-04-14 07:25 1.53845 124.92416 303 ft 3 kts 79°
2026-04-14 07:25 1.53862 124.92435 303 ft 4 kts 10°
2026-04-14 07:26 1.53871 124.92434 303 ft 2 kts 317°
2026-04-14 07:26 1.53873 124.92397 303 ft 6 kts 258°
2026-04-14 07:26 1.53864 124.92393 303 ft 0 kts 178°
2026-04-14 07:27 1.53859 124.92393 303 ft 1 kts 181°
2026-04-14 07:27 1.53848 124.92394 303 ft 0 kts 157°
2026-04-14 07:28 1.53847 124.92394 303 ft 0 kts 149°
2026-04-14 07:29 1.53846 124.92394 303 ft 0 kts 142°
2026-04-14 07:29 1.53844 124.92413 303 ft 4 kts 91°
2026-04-14 07:30 1.53822 124.92432 303 ft 6 kts 180°
2026-04-14 07:30 1.53768 124.92433 303 ft 8 kts 163°
2026-04-14 07:30 1.53746 124.92478 303 ft 5 kts 88°
2026-04-14 07:30 1.53746 124.92494 303 ft 0 kts 91°
2026-04-14 07:31 1.53745 124.92498 303 ft 0 kts 100°
2026-04-14 07:31 1.53745 124.92533 304 ft 10 kts 90°
2026-04-14 07:32 1.53751 124.92596 304 ft 4 kts 25°
2026-04-14 07:32 1.53767 124.92596 304 ft 0 kts
2026-04-14 07:33 1.53832 124.92597 305 ft 35 kts 360°
2026-04-14 07:33 1.54277 124.92610 320 ft 81 kts
2026-04-14 07:33 1.54811 124.92652 560 ft 74 kts
2026-04-14 07:34 1.56430 124.92342 1152 ft 89 kts 295°
2026-04-14 07:34 1.56486 124.91730 1408 ft 90 kts 271°
2026-04-14 07:34 1.56423 124.91083 1629 ft 96 kts 242°
2026-04-14 07:35 1.55886 124.90694 1848 ft 104 kts 188°
2026-04-14 07:35 1.55139 124.90717 2059 ft 111 kts 182°
2026-04-14 07:35 1.54368 124.90718 2303 ft 110 kts 183°
2026-04-14 07:35 1.53590 124.90730 2545 ft 110 kts 184°
2026-04-14 07:36 1.52832 124.90711 2815 ft 108 kts 184°
2026-04-14 07:36 1.52083 124.90694 3054 ft 110 kts 186°
2026-04-14 07:36 1.51311 124.90649 3294 ft 110 kts 187°
2026-04-14 07:36 1.50542 124.90617 3552 ft 110 kts 182°
2026-04-14 07:37 1.49761 124.90627 3798 ft 112 kts 182°
2026-04-14 07:37 1.48991 124.90637 4071 ft 110 kts 184°
2026-04-14 07:37 1.48200 124.90648 4295 ft 114 kts 181°
2026-04-14 07:37 1.47462 124.90925 4545 ft 118 kts 137°
2026-04-14 07:38 1.46981 124.91573 4816 ft 116 kts 121°
2026-04-14 07:38 1.46561 124.92263 5047 ft 119 kts 120°
2026-04-14 07:38 1.46137 124.92973 5298 ft 119 kts 120°
2026-04-14 07:38 1.45670 124.93665 5527 ft 121 kts 132°
2026-04-14 07:39 1.45086 124.94288 5770 ft 121 kts 135°
2026-04-14 07:39 1.44501 124.94897 6010 ft 123 kts 133°
2026-04-14 07:39 1.43908 124.95513 6292 ft 121 kts 135°
2026-04-14 07:39 1.43326 124.96133 6536 ft 124 kts 134°
2026-04-14 07:40 1.42733 124.96767 6781 ft 126 kts 135°
2026-04-14 07:40 1.42141 124.97404 7014 ft 128 kts 135°
2026-04-14 07:40 1.41536 124.98056 7268 ft 127 kts 134°
2026-04-14 07:40 1.40933 124.98713 7501 ft 130 kts 134°
2026-04-14 07:41 1.40329 124.99373 7770 ft 128 kts 134°
2026-04-14 07:41 1.39721 125.00035 7972 ft 135 kts 135°
2026-04-14 07:41 1.39040 125.00781 8027 ft 153 kts 134°
2026-04-14 07:41 1.38274 125.01608 8024 ft 170 kts 135°
2026-04-14 07:42 1.37438 125.02506 8022 ft 181 kts 135°
2026-04-14 07:42 1.36554 125.03447 8008 ft 189 kts 134°
2026-04-14 07:42 1.35638 125.04420 7993 ft 193 kts 135°
2026-04-14 07:42 1.34718 125.05392 7988 ft 191 kts 135°
2026-04-14 07:43 1.33796 125.06350 7977 ft 189 kts 140°
2026-04-14 07:43 1.32608 125.06754 7976 ft 177 kts 189°
2026-04-14 07:43 1.31470 125.06403 7985 ft 170 kts 207°
2026-04-14 07:43 1.30375 125.05946 7979 ft 169 kts 211°
2026-04-14 07:44 1.29289 125.05477 7979 ft 169 kts 210°
2026-04-14 07:44 1.28209 125.05013 7981 ft 169 kts 210°
2026-04-14 07:44 1.27124 125.04542 7977 ft 169 kts 210°
2026-04-14 07:44 1.26035 125.04073 7977 ft 168 kts 210°
2026-04-14 07:45 1.24961 125.03611 7978 ft 168 kts 209°
2026-04-14 07:45 1.23879 125.03138 7979 ft 168 kts 210°
2026-04-14 07:45 1.22813 125.02672 7978 ft 168 kts 210°
2026-04-14 07:45 1.21736 125.02205 7975 ft 168 kts 209°
2026-04-14 07:46 1.20651 125.01736 7977 ft 168 kts 210°
2026-04-14 07:46 1.19573 125.01266 7970 ft 167 kts 213°
2026-04-14 07:46 1.18877 125.00429 7977 ft 154 kts 256°
2026-04-14 07:46 1.18564 124.99415 7975 ft 153 kts 259°
2026-04-14 07:47 1.18291 124.98392 7976 ft 153 kts 259°
2026-04-14 07:47 1.18021 124.97365 7977 ft 153 kts 259°
2026-04-14 07:47 1.17748 124.96330 7977 ft 153 kts 259°
2026-04-14 07:47 1.17473 124.95309 7977 ft 152 kts 259°
2026-04-14 07:48 1.17207 124.94289 7977 ft 152 kts 260°
2026-04-14 07:48 1.16937 124.93257 7980 ft 152 kts 260°
2026-04-14 07:48 1.16671 124.92238 7982 ft 152 kts 259°
2026-04-14 07:48 1.16404 124.91215 7982 ft 152 kts 260°
2026-04-14 07:49 1.16132 124.90192 7981 ft 153 kts 259°
2026-04-14 07:49 1.15860 124.89153 7984 ft 153 kts 260°
2026-04-14 07:49 1.15529 124.88140 7976 ft 158 kts 243°
2026-04-14 07:49 1.14834 124.87288 7988 ft 160 kts 233°
2026-04-14 07:50 1.14036 124.86486 7982 ft 162 kts 229°
2026-04-14 07:50 1.13189 124.85734 7981 ft 163 kts 226°
2026-04-14 07:50 1.12296 124.85008 7983 ft 163 kts 223°
2026-04-14 07:50 1.11380 124.84321 7978 ft 163 kts 222°
2026-04-14 07:51 1.10446 124.83660 7979 ft 164 kts 221°
2026-04-14 07:51 1.09498 124.83022 7979 ft 164 kts 219°
2026-04-14 07:51 1.08530 124.82391 7975 ft 165 kts 219°
2026-04-14 07:51 1.07561 124.81786 7973 ft 165 kts 218°
2026-04-14 07:52 1.06572 124.81181 7970 ft 164 kts 218°
2026-04-14 07:52 1.05594 124.80590 7970 ft 164 kts 217°
2026-04-14 07:52 1.04605 124.80006 7971 ft 165 kts 218°
2026-04-14 07:52 1.03599 124.79419 7970 ft 165 kts 217°
2026-04-14 07:53 1.02600 124.78841 7971 ft 165 kts 216°
2026-04-14 07:53 1.01611 124.78267 7972 ft 165 kts 215°
2026-04-14 07:53 1.00599 124.77689 7978 ft 165 kts 215°
2026-04-14 07:53 0.99592 124.77113 7978 ft 166 kts 215°
2026-04-14 07:54 0.98589 124.76543 7978 ft 165 kts 216°
2026-04-14 07:54 0.97573 124.75971 7975 ft 166 kts 216°
2026-04-14 07:54 0.96595 124.75375 7964 ft 162 kts 229°
2026-04-14 07:54 0.96154 124.74406 7984 ft 152 kts 257°
2026-04-14 07:55 0.95405 124.73646 7982 ft 165 kts 209°
2026-04-14 07:55 0.94308 124.73236 7980 ft 167 kts 207°
2026-04-14 07:55 0.93207 124.72813 7975 ft 168 kts 208°
2026-04-14 07:55 0.92130 124.72362 7977 ft 167 kts 212°
2026-04-14 07:56 0.91089 124.71842 7980 ft 167 kts 210°
2026-04-14 07:56 0.90040 124.71367 7979 ft 166 kts 210°
2026-04-14 07:56 0.88975 124.70879 7981 ft 166 kts 210°
2026-04-14 07:56 0.87928 124.70396 7985 ft 166 kts 212°
2026-04-14 07:57 0.86953 124.69785 7983 ft 163 kts 223°
2026-04-14 07:57 0.86036 124.69096 7978 ft 161 kts 232°
2026-04-14 07:57 0.85259 124.68301 7980 ft 161 kts 230°
2026-04-14 07:57 0.84405 124.67566 7980 ft 163 kts 225°
2026-04-14 07:58 0.83487 124.66878 7985 ft 164 kts 221°
2026-04-14 07:58 0.82538 124.66234 7986 ft 165 kts 218°
2026-04-14 07:58 0.81558 124.65611 7985 ft 165 kts 217°
2026-04-14 07:58 0.80569 124.65019 7989 ft 165 kts 217°
2026-04-14 07:59 0.79570 124.64428 7996 ft 166 kts 216°
2026-04-14 07:59 0.78569 124.63850 7999 ft 166 kts 216°
2026-04-14 07:59 0.77559 124.63277 8007 ft 166 kts 216°
2026-04-14 07:59 0.76546 124.62707 8005 ft 167 kts 216°
2026-04-14 08:00 0.75532 124.62134 8005 ft 166 kts 216°
2026-04-14 08:00 0.74522 124.61567 8005 ft 166 kts 215°
2026-04-14 08:00 0.73496 124.60991 8006 ft 166 kts 215°
2026-04-14 08:00 0.72494 124.60432 8010 ft 166 kts 215°
2026-04-14 08:01 0.71472 124.59865 8008 ft 166 kts 216°
2026-04-14 08:01 0.70466 124.59298 8002 ft 166 kts 217°
2026-04-14 08:01 0.69451 124.58736 8005 ft 166 kts 215°
2026-04-14 08:01 0.68433 124.58164 8003 ft 166 kts 214°
2026-04-14 08:02 0.67429 124.57604 8006 ft 166 kts 216°
2026-04-14 08:02 0.66398 124.57032 8005 ft 167 kts 215°
2026-04-14 08:02 0.65390 124.56471 8003 ft 167 kts 214°
2026-04-14 08:02 0.64370 124.55904 7999 ft 167 kts 216°
2026-04-14 08:03 0.63357 124.55337 7998 ft 167 kts 216°
2026-04-14 08:03 0.62325 124.54762 7996 ft 167 kts 214°
2026-04-14 08:03 0.61317 124.54199 7986 ft 166 kts 216°
2026-04-14 08:03 0.60303 124.53632 7983 ft 166 kts 216°
2026-04-14 08:04 0.59300 124.53072 7984 ft 165 kts 216°
2026-04-14 08:04 0.58293 124.52509 7985 ft 165 kts 214°
2026-04-14 08:04 0.57283 124.51945 7980 ft 166 kts 214°
2026-04-14 08:04 0.56261 124.51379 7978 ft 166 kts 214°
2026-04-14 08:05 0.55259 124.50819 7973 ft 166 kts 215°
2026-04-14 08:05 0.54238 124.50250 7969 ft 166 kts 214°
2026-04-14 08:05 0.53226 124.49688 7961 ft 166 kts 215°
2026-04-14 08:05 0.52225 124.49127 7964 ft 166 kts 214°
2026-04-14 08:06 0.51199 124.48553 7960 ft 166 kts 215°
2026-04-14 08:06 0.50188 124.47993 7950 ft 167 kts 215°
2026-04-14 08:06 0.49168 124.47425 7953 ft 166 kts 216°
2026-04-14 08:06 0.48161 124.46861 7953 ft 166 kts 215°
2026-04-14 08:07 0.47140 124.46290 7953 ft 166 kts 215°
2026-04-14 08:07 0.46127 124.45730 7954 ft 166 kts 215°
2026-04-14 08:07 0.45265 124.44997 7954 ft 161 kts 233°
2026-04-14 08:07 0.44506 124.44177 7959 ft 161 kts 233°
2026-04-14 08:08 0.43750 124.43344 7960 ft 162 kts 233°
2026-04-14 08:08 0.42989 124.42515 7952 ft 162 kts 233°
2026-04-14 08:08 0.42232 124.41683 7956 ft 162 kts 232°
2026-04-14 08:08 0.41463 124.40842 7953 ft 161 kts 233°
2026-04-14 08:09 0.40711 124.40015 7954 ft 162 kts 232°
2026-04-14 08:09 0.39947 124.39179 7954 ft 162 kts 232°
2026-04-14 08:09 0.39191 124.38347 7950 ft 162 kts 233°
2026-04-14 08:09 0.38425 124.37513 7958 ft 162 kts 233°
2026-04-14 08:10 0.37671 124.36684 7957 ft 162 kts 233°
2026-04-14 08:10 0.36914 124.35853 7964 ft 161 kts 233°
2026-04-14 08:10 0.36148 124.35017 7967 ft 161 kts 233°
2026-04-14 08:10 0.35394 124.34187 7972 ft 161 kts 234°
2026-04-14 08:11 0.34638 124.33362 7976 ft 162 kts 233°
2026-04-14 08:11 0.33878 124.32526 7976 ft 162 kts 233°
2026-04-14 08:11 0.33103 124.31679 7972 ft 163 kts 233°
2026-04-14 08:11 0.32343 124.30842 7970 ft 163 kts 233°
2026-04-14 08:12 0.31577 124.30007 7970 ft 163 kts 233°
2026-04-14 08:12 0.30809 124.29167 7966 ft 163 kts 233°
2026-04-14 08:12 0.30038 124.28319 7968 ft 163 kts 233°
2026-04-14 08:12 0.29277 124.27489 7963 ft 163 kts 232°
2026-04-14 08:13 0.28512 124.26646 7965 ft 163 kts 233°
2026-04-14 08:13 0.27751 124.25810 7963 ft 163 kts 233°
2026-04-14 08:13 0.26973 124.24962 7960 ft 163 kts 232°
2026-04-14 08:13 0.26207 124.24120 7958 ft 163 kts 233°
2026-04-14 08:14 0.25446 124.23286 7953 ft 163 kts 233°
2026-04-14 08:14 0.24676 124.22444 7952 ft 163 kts 232°
2026-04-14 08:14 0.23911 124.21605 7954 ft 163 kts 232°
2026-04-14 08:14 0.23139 124.20762 7953 ft 163 kts 232°
2026-04-14 08:15 0.22375 124.19922 7953 ft 163 kts 232°
2026-04-14 08:15 0.21605 124.19083 7952 ft 163 kts 233°
2026-04-14 08:15 0.20845 124.18245 7955 ft 163 kts 233°
2026-04-14 08:15 0.20068 124.17400 7955 ft 163 kts 232°
2026-04-14 08:16 0.19303 124.16557 7952 ft 164 kts 233°
2026-04-14 08:16 0.18541 124.15722 7954 ft 163 kts 233°
2026-04-14 08:16 0.17771 124.14879 7953 ft 163 kts 233°
2026-04-14 08:16 0.17000 124.14034 7952 ft 163 kts 232°
2026-04-14 08:17 0.16237 124.13191 7954 ft 163 kts 232°
2026-04-14 08:17 0.15467 124.12354 7949 ft 163 kts 233°
2026-04-14 08:17 0.14703 124.11517 7949 ft 163 kts 233°
2026-04-14 08:17 0.13939 124.10678 7951 ft 163 kts 233°
2026-04-14 08:18 0.13174 124.09842 7950 ft 163 kts 233°
2026-04-14 08:18 0.12405 124.08996 7954 ft 163 kts 232°
2026-04-14 08:18 0.11643 124.08162 7954 ft 163 kts 233°
2026-04-14 08:18 0.10870 124.07317 7953 ft 163 kts 233°
2026-04-14 08:19 0.10101 124.06476 7954 ft 163 kts 233°
2026-04-14 08:19 0.09334 124.05634 7950 ft 163 kts 233°
2026-04-14 08:19 0.08575 124.04800 7955 ft 163 kts 232°
2026-04-14 08:19 0.07803 124.03956 7954 ft 163 kts 233°
2026-04-14 08:20 0.07031 124.03110 7952 ft 164 kts 233°
2026-04-14 08:20 0.06266 124.02272 7953 ft 164 kts 233°
2026-04-14 08:20 0.05490 124.01419 7953 ft 164 kts 233°
2026-04-14 08:20 0.04722 124.00583 7954 ft 164 kts 233°
2026-04-14 08:21 0.03957 123.99741 7956 ft 164 kts 232°
2026-04-14 08:21 0.03179 123.98886 7949 ft 164 kts 233°
2026-04-14 08:21 0.02410 123.98046 7951 ft 164 kts 232°
2026-04-14 08:21 0.01636 123.97198 7953 ft 164 kts 233°
2026-04-14 08:22 0.00873 123.96359 7951 ft 164 kts 232°
2026-04-14 08:22 0.00099 123.95518 7947 ft 163 kts 233°
2026-04-14 08:22 -0.00669 123.94673 7947 ft 163 kts 233°
2026-04-14 08:22 -0.01434 123.93832 7949 ft 163 kts 233°
2026-04-14 08:23 -0.02205 123.92991 7946 ft 164 kts 232°
2026-04-14 08:23 -0.02980 123.92142 7940 ft 164 kts 232°
2026-04-14 08:23 -0.03741 123.91304 7932 ft 164 kts 232°
2026-04-14 08:23 -0.04519 123.90455 7935 ft 164 kts 233°
2026-04-14 08:24 -0.05291 123.89611 7939 ft 163 kts 232°
2026-04-14 08:24 -0.06047 123.88779 7943 ft 163 kts 232°
2026-04-14 08:24 -0.06820 123.87933 7946 ft 163 kts 232°
2026-04-14 08:24 -0.07577 123.87106 7948 ft 163 kts 233°
2026-04-14 08:25 -0.08345 123.86260 7952 ft 163 kts 232°
2026-04-14 08:25 -0.09106 123.85426 7949 ft 163 kts 232°
2026-04-14 08:25 -0.09874 123.84585 7954 ft 163 kts 232°
2026-04-14 08:25 -0.10657 123.83730 7949 ft 163 kts 232°
2026-04-14 08:26 -0.11415 123.82898 7947 ft 163 kts 233°
2026-04-14 08:26 -0.12186 123.82056 7946 ft 162 kts 232°
2026-04-14 08:26 -0.12941 123.81226 7947 ft 162 kts 232°
2026-04-14 08:26 -0.13706 123.80392 7949 ft 162 kts 232°
2026-04-14 08:27 -0.14463 123.79558 7947 ft 162 kts 233°
2026-04-14 08:27 -0.15229 123.78719 7948 ft 162 kts 232°
2026-04-14 08:27 -0.15996 123.77882 7948 ft 161 kts 232°
2026-04-14 08:27 -0.16751 123.77054 7948 ft 161 kts 233°
2026-04-14 08:28 -0.17515 123.76219 7948 ft 162 kts 233°
2026-04-14 08:28 -0.18263 123.75396 7946 ft 162 kts 232°
2026-04-14 08:28 -0.19030 123.74556 7946 ft 161 kts 233°
2026-04-14 08:28 -0.19785 123.73728 7946 ft 161 kts 233°
2026-04-14 08:29 -0.20537 123.72903 7947 ft 161 kts 233°
2026-04-14 08:29 -0.21301 123.72067 7946 ft 161 kts 233°
2026-04-14 08:29 -0.22054 123.71237 7946 ft 162 kts 232°
2026-04-14 08:29 -0.22813 123.70407 7947 ft 162 kts 233°
2026-04-14 08:30 -0.23580 123.69566 7947 ft 162 kts 232°
2026-04-14 08:30 -0.24336 123.68739 7946 ft 162 kts 232°
2026-04-14 08:30 -0.25103 123.67899 7946 ft 162 kts 232°
2026-04-14 08:30 -0.25865 123.67069 7947 ft 162 kts 233°
2026-04-14 08:31 -0.26617 123.66241 7947 ft 162 kts 233°
2026-04-14 08:31 -0.28142 123.64571 7941 ft 162 kts 233°
2026-04-14 08:31 -0.28905 123.63734 7942 ft 161 kts 232°
2026-04-14 08:32 -0.29662 123.62907 7942 ft 161 kts 232°
2026-04-14 08:32 -0.30419 123.62078 7942 ft 161 kts 233°
2026-04-14 08:32 -0.31178 123.61243 7942 ft 161 kts 233°
2026-04-14 08:32 -0.31929 123.60418 7941 ft 161 kts 233°
2026-04-14 08:33 -0.32682 123.59595 7941 ft 161 kts 232°
2026-04-14 08:33 -0.33442 123.58763 7944 ft 161 kts 232°
2026-04-14 08:33 -0.34202 123.57928 7943 ft 162 kts 233°
2026-04-14 08:33 -0.34965 123.57096 7941 ft 162 kts 233°
2026-04-14 08:34 -0.35725 123.56262 7941 ft 162 kts 233°
2026-04-14 08:34 -0.36487 123.55426 7940 ft 162 kts 232°
2026-04-14 08:34 -0.37246 123.54592 7943 ft 162 kts 232°
2026-04-14 08:34 -0.38007 123.53762 7943 ft 161 kts 232°
2026-04-14 08:35 -0.38756 123.52941 7943 ft 161 kts 233°
2026-04-14 08:35 -0.39521 123.52103 7942 ft 161 kts 232°
2026-04-14 08:35 -0.40278 123.51270 7942 ft 161 kts 233°
2026-04-14 08:35 -0.41034 123.50443 7942 ft 161 kts 233°
2026-04-14 08:36 -0.41789 123.49616 7944 ft 161 kts 232°
2026-04-14 08:36 -0.42540 123.48792 7943 ft 161 kts 233°
2026-04-14 08:36 -0.43305 123.47958 7941 ft 161 kts 232°
2026-04-14 08:36 -0.44056 123.47132 7941 ft 161 kts 233°
2026-04-14 08:37 -0.44816 123.46299 7943 ft 161 kts 232°
2026-04-14 08:37 -0.45572 123.45470 7941 ft 161 kts 232°
2026-04-14 08:37 -0.46334 123.44637 7940 ft 162 kts 232°
2026-04-14 08:37 -0.47089 123.43806 7941 ft 162 kts 233°
2026-04-14 08:38 -0.47848 123.42976 7940 ft 162 kts 232°
2026-04-14 08:38 -0.48615 123.42136 7939 ft 162 kts 232°
2026-04-14 08:38 -0.49370 123.41306 7938 ft 162 kts 232°
2026-04-14 08:38 -0.50133 123.40472 7938 ft 161 kts 232°
2026-04-14 08:39 -0.50886 123.39647 7946 ft 161 kts 233°
2026-04-14 08:39 -0.51651 123.38808 7953 ft 161 kts 232°
2026-04-14 08:39 -0.52400 123.37988 7958 ft 161 kts 233°
2026-04-14 08:39 -0.53166 123.37154 7959 ft 161 kts 233°
2026-04-14 08:40 -0.53914 123.36329 7964 ft 161 kts 233°
2026-04-14 08:40 -0.54667 123.35505 7966 ft 161 kts 233°
2026-04-14 08:40 -0.55424 123.34676 7969 ft 161 kts 232°
2026-04-14 08:40 -0.56187 123.33836 7976 ft 161 kts 233°
2026-04-14 08:41 -0.56944 123.33006 7978 ft 162 kts 232°
2026-04-14 08:41 -0.57709 123.32170 7981 ft 162 kts 232°
2026-04-14 08:41 -0.58471 123.31335 7980 ft 163 kts 232°
2026-04-14 08:41 -0.59233 123.30497 7985 ft 163 kts 232°
2026-04-14 08:42 -0.60000 123.29658 7990 ft 163 kts 232°
2026-04-14 08:42 -0.60765 123.28823 7991 ft 162 kts 232°
2026-04-14 08:42 -0.61528 123.27986 7994 ft 162 kts 232°
2026-04-14 08:42 -0.62289 123.27149 7996 ft 162 kts 232°
2026-04-14 08:43 -0.63048 123.26316 7998 ft 162 kts 232°
2026-04-14 08:43 -0.63814 123.25478 8004 ft 163 kts 232°
2026-04-14 08:43 -0.64581 123.24641 8007 ft 163 kts 232°
2026-04-14 08:43 -0.65345 123.23802 8009 ft 163 kts 233°
2026-04-14 08:44 -0.66107 123.22968 8004 ft 163 kts 232°
2026-04-14 08:44 -0.66873 123.22129 8005 ft 163 kts 231°
2026-04-14 08:44 -0.67642 123.21286 8001 ft 163 kts 232°
2026-04-14 08:44 -0.68402 123.20450 7999 ft 163 kts 232°
2026-04-14 08:45 -0.69176 123.19601 8000 ft 163 kts 232°
2026-04-14 08:45 -0.69937 123.18769 7997 ft 163 kts 232°
2026-04-14 08:45 -0.70699 123.17933 7997 ft 163 kts 231°
2026-04-14 08:45 -0.71465 123.17091 7998 ft 163 kts 231°
2026-04-14 08:46 -0.72235 123.16253 7997 ft 163 kts 232°
2026-04-14 08:46 -0.72998 123.15413 7994 ft 163 kts 232°
2026-04-14 08:46 -0.73761 123.14574 7996 ft 163 kts 233°
2026-04-14 08:46 -0.74510 123.13718 7994 ft 161 kts 237°
2026-04-14 08:47 -0.75196 123.12834 7993 ft 161 kts 236°
2026-04-14 08:47 -0.75892 123.11940 7991 ft 161 kts 236°
2026-04-14 08:47 -0.76584 123.11053 7988 ft 162 kts 237°
2026-04-14 08:47 -0.77280 123.10162 7986 ft 162 kts 237°
2026-04-14 08:48 -0.77972 123.09278 7984 ft 161 kts 237°
2026-04-14 08:48 -0.78658 123.08402 7982 ft 161 kts 236°
2026-04-14 08:48 -0.79349 123.07512 7980 ft 160 kts 237°
2026-04-14 08:48 -0.80038 123.06630 7977 ft 160 kts 236°
2026-04-14 08:49 -0.80724 123.05751 7972 ft 160 kts 236°
2026-04-14 08:49 -0.81413 123.04869 7974 ft 160 kts 237°
2026-04-14 08:49 -0.82100 123.03994 7972 ft 161 kts 236°
2026-04-14 08:49 -0.82788 123.03112 7970 ft 161 kts 236°
2026-04-14 08:50 -0.83468 123.02241 7959 ft 153 kts 236°
2026-04-14 08:50 -0.84118 123.01411 7801 ft 151 kts 236°
2026-04-14 08:50 -0.84773 123.00572 7566 ft 154 kts 237°
2026-04-14 08:50 -0.85432 122.99727 7320 ft 156 kts 237°
2026-04-14 08:51 -0.86108 122.98859 7079 ft 156 kts 236°
2026-04-14 08:51 -0.86781 122.97999 6839 ft 156 kts 236°
2026-04-14 08:51 -0.87441 122.97151 6600 ft 156 kts 235°
2026-04-14 08:51 -0.88113 122.96295 6339 ft 156 kts 235°
2026-04-14 08:52 -0.88785 122.95431 6051 ft 157 kts 234°
2026-04-14 08:52 -0.89460 122.94569 5767 ft 158 kts 234°
2026-04-14 08:52 -0.90138 122.93705 5481 ft 157 kts 234°
2026-04-14 08:52 -0.90803 122.92835 5189 ft 157 kts 237°
2026-04-14 08:53 -0.91229 122.91854 4900 ft 154 kts 258°
2026-04-14 08:53 -0.91466 122.90788 4493 ft 161 kts 259°
2026-04-14 08:53 -0.91688 122.89693 4162 ft 160 kts 259°
2026-04-14 08:53 -0.91905 122.88625 3893 ft 154 kts 259°
2026-04-14 08:54 -0.92095 122.87595 3668 ft 145 kts 259°
2026-04-14 08:54 -0.92403 122.86671 3453 ft 138 kts 233°
2026-04-14 08:54 -0.93011 122.85947 3179 ft 137 kts 226°
2026-04-14 08:54 -0.93675 122.85252 2873 ft 138 kts 223°
2026-04-14 08:55 -0.94368 122.84586 2567 ft 138 kts 221°
2026-04-14 08:55 -0.95084 122.83940 2256 ft 138 kts 219°
2026-04-14 08:55 -0.95801 122.83304 1948 ft 138 kts 225°
2026-04-14 08:55 -0.96440 122.82598 1665 ft 136 kts 226°
2026-04-14 08:56 -0.97136 122.81980 1402 ft 132 kts 219°
2026-04-14 08:56 -0.97873 122.81481 1203 ft 125 kts 214°
2026-04-14 08:56 -0.98556 122.80966 989 ft 121 kts 219°
2026-04-14 08:56 -0.99211 122.80503 864 ft 104 kts 217°
2026-04-14 08:57 -0.99784 122.80090 732 ft 99 kts 220°
2026-04-14 08:57 -1.00326 122.79684 640 ft 95 kts 217°
2026-04-14 08:57 -1.00843 122.79318 534 ft 85 kts 214°
2026-04-14 08:57 -1.01310 122.78997 408 ft 77 kts 216°
2026-04-14 08:58 -1.01748 122.78693 327 ft 74 kts 215°
2026-04-14 08:58 -1.02185 122.78389 237 ft 77 kts 217°
2026-04-14 08:58 -1.02624 122.78072 143 ft 78 kts 214°
2026-04-14 08:58 -1.03055 122.77770 86 ft 68 kts 215°
2026-04-14 08:59 -1.03382 122.77544 86 ft 48 kts 215°
2026-04-14 08:59 -1.03637 122.77363 86 ft 39 kts 216°
2026-04-14 08:59 -1.03824 122.77231 87 ft 26 kts 214°
2026-04-14 08:59 -1.03902 122.77241 87 ft 2 kts 131°
2026-04-14 09:00 -1.03923 122.77256 87 ft 8 kts 184°
2026-04-14 09:00 -1.03998 122.77206 87 ft 13 kts 216°
2026-04-14 09:00 -1.04037 122.77228 87 ft 7 kts 144°
2026-04-14 09:00 -1.04050 122.77204 87 ft 3 kts 261°
2026-04-14 09:01 -1.04050 122.77203 87 ft 0 kts 261°